Date String (YYYY-MM-DD hh:mm:ss) UTC,Instrument flags,Ambient pressure (hPa),Sample flow (lpm),Bypass flow (lpm),Sample temperature (°C),Ambient temperature (°C),ASC tube jacket temperature (°C),LED temperature (°C),Box temperature (°C),Sample RH (%),Span deviation,Mass concentration (μg/m³),Mass concentration (μg/m³),Mass concentration (μg/m³)
DateTimeUTC,F1_M11,P_M11,Q1_M11,Q2_M11,T1_M11,T2_M11,T3_M11,T4_M11,T5_M11,U1_M11,ZSPAN_M11,X0_M11,X2_M11,X1_M11
2022-01-13 13:00:00,,0830.7,4.98,0.00,25.7,24.9,00.0,34.7,27.5,09.6,0000.0,0002.55,0000.02,0000.00
2022-01-13 13:01:00,,0830.7,5.00,0.00,25.7,24.9,00.0,34.7,27.5,09.6,0000.0,0001.91,0000.02,0000.00
2022-01-13 13:02:00,,0830.7,5.01,0.00,25.7,24.9,00.0,34.7,27.5,09.6,0000.0,0001.79,0000.01,0000.00
2022-01-13 13:03:00,,0830.7,5.00,0.00,25.7,24.9,00.0,34.7,27.5,09.7,0000.0,0001.73,0000.01,0000.00
2022-01-13 13:04:00,,0830.7,5.01,0.00,25.7,24.9,00.0,34.7,27.5,09.8,0000.0,0001.79,0000.02,0000.00
2022-01-13 13:05:00,,0830.7,4.99,0.00,25.7,24.9,00.0,34.7,27.5,09.7,0000.0,0001.84,0000.02,0000.00
2022-01-13 13:06:00,,0830.7,5.00,0.00,25.7,24.9,00.0,34.7,27.5,09.6,0000.0,0001.56,0000.04,0000.00
2022-01-13 13:07:00,,0830.7,5.01,0.00,25.7,24.9,00.0,34.7,27.5,09.4,0000.0,0000.67,0000.06,0000.00
2022-01-13 13:08:00,,0830.7,5.00,0.00,25.7,24.9,00.0,34.7,27.5,09.3,0000.0,0001.63,0000.06,0000.00
2022-01-13 13:09:00,,0830.7,5.01,0.00,25.7,24.9,00.0,34.7,27.5,09.4,0000.0,0001.63,0000.06,0000.00
2022-01-13 13:10:00,,0830.7,5.01,0.00,25.7,24.9,00.0,34.7,27.5,09.5,0000.0,0001.63,0000.06,0000.00
2022-01-13 13:11:00,,0830.7,4.99,0.00,25.7,24.9,00.0,34.7,27.5,09.5,0000.0,0001.82,0000.07,0000.00
2022-01-13 13:12:00,,0830.7,5.00,0.00,25.7,24.9,00.0,34.7,27.5,09.6,0000.0,0002.83,0000.07,0000.00
2022-01-13 13:15:00,,0830.9,4.97,0.00,25.7,24.9,00.0,34.7,27.5,09.4,0000.0,0007.20,0000.18,0000.00
2022-01-13 13:16:00,,0830.9,5.00,0.00,25.7,24.9,00.0,34.7,27.5,09.3,0000.0,0012.57,0000.45,0000.03
2022-01-13 13:17:00,,0830.9,5.00,0.00,25.7,24.9,00.0,34.7,27.5,09.4,0000.0,0012.48,0000.46,0000.03
2022-01-13 13:18:00,,0830.9,5.01,0.00,25.7,24.9,00.0,34.7,27.5,09.4,0000.0,0012.37,0000.44,0000.03
2022-01-13 13:19:00,,0830.9,4.99,0.00,25.7,24.9,00.0,34.7,27.5,09.3,0000.0,0012.20,0000.44,0000.03
2022-01-13 13:20:00,,0830.9,5.00,0.00,25.7,24.9,00.0,34.7,27.5,09.3,0000.0,0012.47,0000.46,0000.04
2022-01-13 13:21:00,,0830.9,5.02,0.00,25.7,24.9,00.0,34.7,27.5,09.2,0000.0,0012.47,0000.46,0000.04
2022-01-13 13:22:00,,0830.9,4.99,0.00,25.7,24.9,00.0,34.7,27.5,09.2,0000.0,0012.42,0000.48,0000.04
2022-01-13 13:23:00,,0830.9,5.01,0.00,25.7,24.9,00.0,34.7,27.5,09.3,0000.0,0011.87,0000.48,0000.04
2022-01-13 13:24:00,,0830.9,5.01,0.00,25.7,24.9,00.0,34.7,27.5,09.3,0000.0,0011.80,0000.47,0000.04
2022-01-13 13:25:00,,0830.8,5.00,0.00,25.7,24.9,00.0,34.7,27.5,09.3,0000.0,0011.41,0000.47,0000.04
2022-01-13 13:26:00,,0830.8,5.01,0.00,25.7,24.9,00.0,34.7,27.5,09.4,0000.0,0009.99,0000.44,0000.04
2022-01-13 13:27:00,,0830.8,4.99,0.00,25.7,24.9,00.0,34.7,27.5,09.5,0000.0,0001.41,0000.08,0000.01
2022-01-13 13:28:00,,0830.8,4.99,0.00,25.7,24.9,00.0,34.7,27.5,09.4,0000.0,0001.24,0000.05,0000.00
2022-01-13 13:29:00,,0830.8,5.01,0.00,25.7,24.9,00.0,34.7,27.5,09.3,0000.0,0001.15,0000.05,0000.00
2022-01-13 13:30:00,,0830.8,5.01,0.00,25.7,24.9,00.0,34.7,27.5,09.2,0000.0,0000.62,0000.04,0000.00
2022-01-13 13:31:00,,0830.8,4.99,0.00,25.7,24.9,00.0,34.7,27.5,09.2,0000.0,0000.16,0000.03,0000.00
2022-01-13 13:32:00,,0830.8,5.00,0.00,25.7,24.9,00.0,34.7,27.5,09.2,0000.0,0000.16,0000.02,0000.00
2022-01-13 13:33:00,,0830.9,4.99,0.00,25.7,24.9,00.0,34.7,27.5,09.2,0000.0,0000.01,0000.00,0000.00
2022-01-13 13:34:00,,0830.9,5.01,0.00,25.7,24.9,00.0,34.7,27.5,09.2,0000.0,0000.03,0000.01,0000.00
2022-01-13 13:35:00,,0830.9,4.99,0.00,25.8,24.9,00.0,34.7,27.5,09.2,0000.0,0000.06,0000.02,0000.00
2022-01-13 13:36:00,,0830.9,5.01,0.00,25.7,24.9,00.0,34.7,27.5,09.2,0000.0,0000.53,0000.02,0000.00
2022-01-13 13:37:00,,0830.9,4.99,0.00,25.7,25.0,00.0,34.7,27.5,09.2,0000.0,0000.79,0000.02,0000.00
2022-01-13 13:38:00,,0830.8,5.00,0.00,25.7,25.0,00.0,34.7,27.5,09.2,0000.0,0000.79,0000.02,0000.00
2022-01-13 13:39:00,,0830.8,5.00,0.00,25.7,24.9,00.0,34.7,27.5,09.1,0000.0,0000.79,0000.02,0000.00
2022-01-13 13:40:00,,0830.8,5.01,0.00,25.8,25.0,00.0,34.7,27.5,09.1,0000.0,0000.79,0000.02,0000.00
2022-01-13 13:41:00,,0830.8,4.98,0.00,25.7,24.9,00.0,34.7,27.5,09.1,0000.0,0000.83,0000.04,0000.00
2022-01-13 13:42:00,,0830.8,5.01,0.00,25.7,24.9,00.0,34.7,27.5,09.1,0000.0,0001.35,0000.07,0000.00
2022-01-13 13:43:00,,0830.9,5.01,0.00,25.7,24.9,00.0,34.7,27.5,09.1,0000.0,0001.58,0000.09,0000.00
2022-01-13 13:44:00,,0830.9,5.00,0.00,25.7,24.9,00.0,34.7,27.5,09.2,0000.0,0001.58,0000.09,0000.00
2022-01-13 13:45:00,,0830.9,5.01,0.00,25.8,24.9,00.0,34.7,27.5,09.1,0000.0,0001.57,0000.08,0000.00
2022-01-13 13:46:00,,0830.9,4.99,0.00,25.7,24.9,00.0,34.7,27.5,09.1,0000.0,0001.52,0000.07,0000.00
2022-01-13 13:47:00,,0830.9,5.01,0.00,25.8,24.9,00.0,34.7,27.5,09.1,0000.0,0001.22,0000.07,0000.00
2022-01-13 13:48:00,,0830.9,4.99,0.00,25.7,24.9,00.0,34.7,27.5,09.1,0000.0,0000.86,0000.08,0000.00
2022-01-13 13:49:00,,0830.9,5.00,0.00,25.7,24.9,00.0,34.7,27.5,09.1,0000.0,0000.97,0000.09,0000.00
2022-01-13 13:50:00,,0830.9,5.01,0.00,25.7,24.9,00.0,34.7,27.5,09.1,0000.0,0001.05,0000.09,0000.00
2022-01-13 13:51:00,,0830.9,5.00,0.00,25.7,24.9,00.0,34.7,27.5,09.2,0000.0,0001.10,0000.10,0000.00
2022-01-13 13:52:00,,0830.9,5.02,0.00,25.7,24.9,00.0,34.7,27.5,09.1,0000.0,0001.07,0000.08,0000.00
2022-01-13 13:53:00,,0830.9,4.98,0.00,25.7,24.9,00.0,34.7,27.5,09.1,0000.0,0000.62,0000.05,0000.00
2022-01-13 13:54:00,,0830.9,5.02,0.00,25.7,24.9,00.0,34.7,27.5,09.1,0000.0,0000.31,0000.03,0000.00
2022-01-13 13:55:00,,0830.9,4.99,0.00,25.7,24.9,00.0,34.7,27.5,09.1,0000.0,0000.31,0000.03,0000.00
2022-01-13 13:56:00,,0830.9,5.00,0.00,25.7,24.9,00.0,34.7,27.5,09.1,0000.0,0000.31,0000.03,0000.00
2022-01-13 13:57:00,,0830.9,5.01,0.00,25.7,24.9,00.0,34.7,27.4,09.2,0000.0,0000.31,0000.03,0000.00
2022-01-13 13:58:00,,0830.9,5.00,0.00,25.7,24.8,00.0,34.7,27.5,09.3,0000.0,0000.31,0000.03,0000.00
2022-01-13 13:59:00,,0830.9,5.00,0.00,25.7,24.8,00.0,34.7,27.4,09.4,0000.0,0000.26,0000.02,0000.00
